Spokane Fairchild, WA

5:43 AM PDT on July 20, 2017 (GMT -0700)
Fairchild Air Force Base

Weather History for KSKA - January, 2014

Change the Weather History Date:

Saturday, January 11, 2014

  Actual Average Record
Temperature  
Mean Temperature 40 °F -  
Max Temperature 46 °F 31 °F 46 °F (2014)
Min Temperature 33 °F 21 °F 1 °F (1998)
Degree Days  
Heating Degree Days 26    
Moisture  
Dew Point 35 °F    
Average Humidity 84    
Maximum Humidity 93    
Minimum Humidity 65    
Precipitation  
Precipitation 0.13 in - - ()
Sea Level Pressure  
Sea Level Pressure 29.49 in    
Wind  
Wind Speed 20 mph (SSE)    
Max Wind Speed 36 mph    
Max Gust Speed 46 mph    
Visibility 10 miles    
Events Rain , Snow    
Averages and records for this station are not official NWS values.
T = Trace of Precipitation, MM = Missing Value Source: NWS Daily Summary

Daily Weather History Graph

Daily Weather History Graph

Search for Another Location

Airport or City:

Trip Planner

Search our weather history database for the weather conditions in past years. The results will help you decide how hot, cold, wet, or windy it might be!

Date:

Astronomy

Jan. 11, 2014 Rise Set
Actual Time 7:36 AM PST 4:21 PM PST
Civil Twilight 7:01 AM PST 4:56 PM PST
Nautical Twilight 6:22 AM PST 5:34 PM PST
Astronomical Twilight 5:45 AM PST 6:12 PM PST
Moon 1:11 PM PST (1/11) 3:41 AM PST (1/11)
Length of Visible Light 9h 55m
Length of Day
8h 44m
Waxing Gibbous, 84% of the Moon is Illuminated
Jan 11
Waxing Gibbous
Jan 15
Full
Jan 23
Last Quarter
Jan 30
New
Feb 6
First Quarter

Hourly Weather History & Observations

Time (PST) Temp. Windchill Dew Point Humidity Pressure Visibility Wind Dir Wind Speed Gust Speed Precip Events Conditions
12:18 AM 37.4 °F 29.3 °F 35.6 °F 93% 29.73 in 10.0 mi SE 12.7 mph - N/A Rain Light Rain
12:28 AM 37.4 °F 27.8 °F 35.6 °F 93% 29.71 in 10.0 mi SE 17.3 mph 24.2 mph N/A Rain Light Rain
12:58 AM 38.7 °F 29.8 °F 36.3 °F 91% 29.74 in 10.0 mi SE 16.1 mph 25.3 mph 0.02 in Rain Light Rain
1:18 AM 39.2 °F 31.2 °F 37.4 °F 93% 29.66 in 10.0 mi SE 13.8 mph - N/A   Overcast
1:47 AM 39.2 °F 30.5 °F 37.4 °F 93% 29.65 in 10.0 mi SE 16.1 mph 23.0 mph N/A Rain Light Rain
1:53 AM 39.2 °F 30.8 °F 37.4 °F 93% 29.64 in 10.0 mi SE 15.0 mph - N/A   Overcast
1:58 AM 39.6 °F 31.3 °F 37.0 °F 91% 29.69 in 10.0 mi SE 15.0 mph - 0.00 in   Overcast
2:50 AM 39.2 °F 30.5 °F 37.4 °F 93% 29.60 in 10.0 mi SE 16.1 mph - N/A   Overcast
2:58 AM 39.0 °F 31.0 °F 36.9 °F 92% 29.65 in 10.0 mi SE 13.8 mph - 0.00 in   Overcast
3:18 AM 39.2 °F 30.8 °F 37.4 °F 93% 29.58 in 10.0 mi SE 15.0 mph - N/A   Overcast
3:22 AM 39.2 °F 30.2 °F 37.4 °F 93% 29.57 in 10.0 mi SE 17.3 mph 23.0 mph N/A Rain Light Rain
3:58 AM 39.4 °F 29.8 °F 36.9 °F 91% 29.58 in 10.0 mi SE 19.6 mph 24.2 mph 0.00 in Rain Light Rain
4:15 AM 41.0 °F 32.5 °F 37.4 °F 87% 29.52 in 10.0 mi SE 17.3 mph 27.6 mph N/A   Overcast
4:22 AM 41.0 °F 31.9 °F 37.4 °F 87% 29.52 in 10.0 mi SSE 19.6 mph 27.6 mph N/A Rain Light Rain
4:58 AM 41.4 °F 33.3 °F 37.4 °F 86% 29.53 in 10.0 mi SE 16.1 mph - 0.01 in Rain Light Rain
5:02 AM 41.0 °F 32.5 °F 37.4 °F 87% 29.49 in 10.0 mi SE 17.3 mph 24.2 mph N/A   Overcast
5:16 AM 41.0 °F 32.5 °F 37.4 °F 87% 29.47 in 10.0 mi SE 17.3 mph 23.0 mph N/A Rain Light Rain
5:29 AM 41.0 °F 32.8 °F 37.4 °F 87% 29.46 in 10.0 mi SE 16.1 mph - N/A   Overcast
5:54 AM 42.8 °F 34.5 °F 37.4 °F 81% 29.42 in 10.0 mi SE 18.4 mph - N/A   Mostly Cloudy
5:58 AM 42.4 °F 34.1 °F 36.9 °F 81% 29.46 in 10.0 mi SE 18.4 mph - 0.00 in   Overcast
6:09 AM 44.6 °F 37.4 °F 37.4 °F 76% 29.40 in 10.0 mi SE 16.1 mph - N/A   Overcast
6:22 AM 44.6 °F 36.9 °F 37.4 °F 76% 29.41 in 10.0 mi SE 18.4 mph 24.2 mph N/A Rain Light Rain
6:58 AM 42.4 °F 35.3 °F 37.9 °F 84% 29.46 in 10.0 mi SE 13.8 mph - 0.01 in Rain Light Rain
7:53 AM 41.0 °F 33.5 °F 37.4 °F 87% 29.39 in 10.0 mi SSE 13.8 mph - N/A   Overcast
7:58 AM 40.6 °F 32.7 °F 37.8 °F 89% 29.43 in 10.0 mi SSE 15.0 mph - 0.02 in   Overcast
8:04 AM 41.0 °F 31.9 °F 37.4 °F 87% 29.39 in 10.0 mi SSE 19.6 mph - N/A Rain Light Rain
8:16 AM 42.8 °F 34.3 °F 37.4 °F 81% 29.39 in 10.0 mi SSE 19.6 mph - N/A   Mostly Cloudy
8:58 AM 46.2 °F 36.5 °F 37.9 °F 73% 29.43 in 10.0 mi South 33.4 mph 46.0 mph 0.01 in   Mostly Cloudy
9:58 AM 44.2 °F 34.6 °F 37.2 °F 76% 29.47 in 10.0 mi South 27.6 mph 42.6 mph 0.03 in   Partly Cloudy
10:58 AM 42.8 °F 32.3 °F 35.2 °F 75% 29.49 in 10.0 mi South 29.9 mph 39.1 mph N/A   Partly Cloudy
11:58 AM 43.2 °F 33.4 °F 33.6 °F 69% 29.47 in 10.0 mi South 26.5 mph 38.0 mph 0.01 in   Clear
12:49 PM 42.8 °F 32.1 °F 32.0 °F 66% 29.43 in 10.0 mi South 31.1 mph 46.0 mph N/A   Squalls
12:58 PM 43.5 °F 34.5 °F 32.5 °F 65% 29.46 in 10.0 mi South 23.0 mph 46.0 mph 0.01 in   Clear
1:58 PM 43.0 °F 33.5 °F 32.5 °F 67% 29.47 in 10.0 mi South 24.2 mph 38.0 mph 0.01 in   Partly Cloudy
2:58 PM 42.4 °F 30.9 °F 32.2 °F 67% 29.45 in 10.0 mi South 35.7 mph 46.0 mph N/A   Overcast
3:58 PM 41.5 °F 31.4 °F 30.6 °F 65% 29.43 in 10.0 mi South 25.3 mph 38.0 mph N/A   Scattered Clouds
4:58 PM 40.3 °F 29.5 °F 30.6 °F 68% 29.44 in 9.0 mi South 26.5 mph 42.6 mph N/A   Partly Cloudy
5:58 PM 38.1 °F 25.9 °F 31.5 °F 77% 29.44 in 10.0 mi South 29.9 mph 39.1 mph N/A   Partly Cloudy
5:59 PM 37.4 °F 25.4 °F 32.0 °F 81% 29.39 in 10.0 mi South 27.6 mph 39.1 mph N/A Snow Light Snow
6:19 PM 37.4 °F 25.9 °F 32.0 °F 81% 29.40 in 10.0 mi South 25.3 mph 36.8 mph N/A Snow Light Snow
6:24 PM 37.4 °F 25.6 °F 32.0 °F 81% 29.40 in 10.0 mi South 26.5 mph 36.8 mph N/A Snow Light Snow
6:34 PM 37.4 °F 24.8 °F 32.0 °F 81% 29.39 in 10.0 mi South 31.1 mph 36.8 mph N/A Snow Light Snow
6:44 PM 37.4 °F 25.6 °F 32.0 °F 81% 29.40 in 10.0 mi South 26.5 mph 39.1 mph N/A Snow Light Snow
6:58 PM 37.0 °F 25.1 °F 32.9 °F 85% 29.44 in 10.0 mi South 26.5 mph 43.7 mph 0.00 in Snow Light Snow
7:58 PM 36.3 °F 24.2 °F 32.9 °F 87% 29.46 in 10.0 mi South 26.5 mph 40.3 mph 0.00 in Snow Light Snow
8:10 PM 35.6 °F 23.4 °F 32.0 °F 87% 29.42 in 10.0 mi South 25.3 mph 39.1 mph N/A Snow Light Snow
8:50 PM 35.6 °F 23.7 °F 32.0 °F 87% 29.43 in 10.0 mi South 24.2 mph 43.7 mph N/A Snow Light Snow
8:58 PM 35.8 °F 23.0 °F 33.1 °F 90% 29.47 in 10.0 mi South 28.8 mph 35.7 mph 0.00 in Snow Light Snow
9:13 PM 35.6 °F 23.2 °F 32.0 °F 87% 29.43 in 10.0 mi South 26.5 mph 38.0 mph N/A Snow Light Snow
9:28 PM 35.6 °F 24.0 °F 32.0 °F 87% 29.42 in 10.0 mi South 23.0 mph 34.5 mph N/A Snow Light Snow
9:58 PM 35.4 °F 22.3 °F 32.2 °F 88% 29.47 in 10.0 mi South 29.9 mph 39.1 mph 0.00 in Snow Light Snow
10:21 PM 35.6 °F 22.7 °F 32.0 °F 87% 29.44 in 10.0 mi South 28.8 mph 41.4 mph N/A Snow Light Snow
10:26 PM 35.6 °F 23.2 °F 32.0 °F 87% 29.44 in 10.0 mi South 26.5 mph 38.0 mph N/A Snow Light Snow
10:58 PM 34.9 °F 21.3 °F 32.5 °F 91% 29.50 in 10.0 mi South 31.1 mph 39.1 mph 0.00 in Snow Light Snow
11:08 PM 35.6 °F 23.0 °F 32.0 °F 87% 29.46 in 10.0 mi South 27.6 mph 42.6 mph N/A Snow Light Snow
11:23 PM 33.8 °F 20.8 °F 32.0 °F 93% 29.46 in 10.0 mi South 26.5 mph 38.0 mph N/A Snow Light Snow
11:28 PM 33.8 °F 20.1 °F 32.0 °F 93% 29.46 in 10.0 mi South 29.9 mph 38.0 mph N/A Snow Light Snow
11:53 PM 33.8 °F 20.1 °F 32.0 °F 93% 29.46 in 10.0 mi South 29.9 mph 42.6 mph N/A Snow Light Snow
11:58 PM 34.3 °F 21.5 °F 31.6 °F 90% 29.50 in 10.0 mi South 26.5 mph 42.6 mph 0.00 in Snow Light Snow